Weather History for Nassau, Bahamas

Change the Weather History Date:

Thursday, November 15, 2012

  Actual Average Record
Temperature  
Mean Temperature 76 °F -  
Max Temperature 81 °F 80 °F 87 °F (2008)
Min Temperature 70 °F 66 °F 66 °F (1998)
Cooling Degree Days 10    
Growing Degree Days 26 (Base 50)    
Moisture  
Dew Point 64 °F    
Average Humidity 65    
Maximum Humidity 73    
Minimum Humidity 49    
Precipitation  
Precipitation 0.00 in 0.07 in - ()
Sea Level Pressure  
Sea Level Pressure 30.04 in    
Wind  
Wind Speed 6 mph ()    
Max Wind Speed 12 mph    
Max Gust Speed -    
Visibility 6.9 miles    
Events      
Averages and records for this station are not official NWS values.
T = Trace of Precipitation, MM = Missing Value Source: Averaged Metar Reports

Daily Weather History Graph

Daily Weather History Graph

Search for Another Location

Airport:

Trip Planner

Search our weather history database for the weather conditions in past years. The results will help you decide how hot, cold, wet, or windy it might be!

Date:

Astronomy

Nov. 15, 2012 Rise Set
Actual Time 6:26 AM EST 5:21 PM EST
Civil Twilight 6:02 AM EST 5:46 PM EST
Nautical Twilight 5:35 AM EST 6:13 PM EST
Astronomical Twilight 5:07 AM EST 6:41 PM EST
Moon 8:13 AM EST (11/15) 7:17 PM EST (11/15)
Length of Visible Light 11h 43m
Length of Day
10h 55m
Waxing Crescent, 5% of the Moon is Illuminated
Nov 15
Waxing Crescent
Nov 20
First Quarter
Nov 28
Full
Dec 6
Last Quarter
Dec 13
New

Hourly Weather History & Observations

Time (EST) Temp. Heat Index Dew Point Humidity Pressure Visibility Wind Dir Wind Speed Gust Speed Precip Events Conditions
12:00 AM 73.4 °F - 64.4 °F 73% 30.05 in 6.2 mi NE 5.8 mph - N/A   Scattered Clouds
1:00 AM 75 °F - 64 °F 61% 30.04 in 9 mi NNE 6.9 mph - -   Partly Cloudy
1:00 AM 75.2 °F - 64.4 °F 69% 30.04 in 6.2 mi NNE 6.9 mph - N/A   Scattered Clouds
2:00 AM 73.4 °F - 64.4 °F 73% 30.03 in 6.2 mi NNE 5.8 mph - N/A   Partly Cloudy
3:00 AM 73.4 °F - 64.4 °F 73% 30.02 in 6.2 mi NNE 5.8 mph - N/A   Partly Cloudy
4:00 AM 73 °F - 64 °F 66% 30.01 in 9 mi East 5.8 mph - -   Scattered Clouds
4:00 AM 73.4 °F - 64.4 °F 73% 30.01 in 6.2 mi North 5.8 mph - N/A   Partly Cloudy
5:00 AM 71.6 °F - 60.8 °F 69% 30.01 in 6.2 mi NNE 3.5 mph - N/A   Partly Cloudy
6:00 AM 71.6 °F - 62.6 °F 73% 30.02 in 6.2 mi Calm Calm - N/A   Partly Cloudy
7:00 AM 73 °F - 63 °F 63% 30.04 in 9 mi NNE 4.6 mph - -   Scattered Clouds
7:00 AM 73.4 °F - 62.6 °F 69% 30.03 in 6.2 mi NNE 4.6 mph - N/A   Partly Cloudy
8:00 AM 75.2 °F - 62.6 °F 65% 30.05 in 6.2 mi NNE 9.2 mph - N/A   Scattered Clouds
9:00 AM 77.0 °F - 62.6 °F 61% 30.07 in 6.2 mi NNE 9.2 mph - N/A   Scattered Clouds
10:00 AM 79 °F - 64 °F 51% 30.07 in 9 mi NNE 11.5 mph - -   Partly Cloudy
10:00 AM 78.8 °F - 64.4 °F 61% 30.07 in 6.2 mi NNE 11.5 mph - N/A   Scattered Clouds
11:00 AM 77.0 °F - 62.6 °F 61% 30.06 in 6.2 mi NNE 11.5 mph - N/A   Scattered Clouds
12:00 PM 78.8 °F - 64.4 °F 61% 30.04 in 6.2 mi NNE 11.5 mph - N/A   Scattered Clouds
1:00 PM 80 °F - 66 °F 54% 30.04 in 9 mi North 9.2 mph - -   Partly Cloudy
1:00 PM 80.6 °F 82.7 °F 66.2 °F 61% 30.03 in 6.2 mi North 9.2 mph - N/A   Scattered Clouds
2:00 PM 77.0 °F - 62.6 °F 61% 30.03 in 6.2 mi North 11.5 mph - N/A   Partly Cloudy
3:00 PM 77.0 °F - 62.6 °F 61% 30.02 in 6.2 mi North 9.2 mph - N/A   Partly Cloudy
4:00 PM 80 °F - 64 °F 49% 30.03 in 9 mi 3.5 mph - -   Partly Cloudy
4:00 PM 78.8 °F - 64.4 °F 61% 30.02 in 6.2 mi North 3.5 mph - N/A   Partly Cloudy
5:00 PM 75.2 °F - 62.6 °F 65% 30.03 in 6.2 mi NNW 3.5 mph - N/A   Partly Cloudy
6:00 PM 75.2 °F - 64.4 °F 69% 30.03 in 6.2 mi NNW 5.8 mph - N/A   Scattered Clouds
7:00 PM 75 °F - 68 °F 73% 30.04 in 9 mi NNE 6.9 mph - -   Partly Cloudy
7:00 PM 80.6 °F 82.3 °F 64.4 °F 58% 30.04 in 6.2 mi NNE 6.9 mph - N/A   Scattered Clouds
8:00 PM 75.2 °F - 62.6 °F 65% 30.06 in 6.2 mi North 8.1 mph - N/A   Scattered Clouds
9:00 PM 75.2 °F - 62.6 °F 65% 30.06 in 6.2 mi NNE 8.1 mph - N/A   Partly Cloudy
10:00 PM 75 °F - 65 °F 64% 30.05 in 9 mi North 5.8 mph - -   Partly Cloudy
10:00 PM 75.2 °F - 66.2 °F 73% 30.05 in 6.2 mi North 5.8 mph - N/A   Partly Cloudy
11:00 PM 75.2 °F - 64.4 °F 69% 30.04 in 6.2 mi North 4.6 mph - N/A   Partly Cloudy